Location: Buena Vista
(37.7110°N, 119.7938°W)
Time: 11:21:19
(UTC+00:00)

ITAMSAT 1 - Visible Passes

Search period start: 06 October 2024 00:00
Search period end: 16 October 2024 00:00
Orbit: 781 x 795 km, 98.8° (Epoch: 05 October)

Date Brightness Start Highest point End Pass type
(mag) Time Alt. Az. Time Alt. Az. Time Alt. Az.
06 Oct 9.9 03:31:10 11° NNE 03:31:10 11° NNE 03:31:24 10° NNE visible
06 Oct 10.4 05:11:51 12° NNW 05:11:51 12° NNW 05:12:11 10° NNW visible
07 Oct 10.1 04:41:37 14° N 04:41:37 14° N 04:42:16 10° N visible
08 Oct 10.0 04:11:22 13° N 04:11:22 13° N 04:11:57 10° N visible
09 Oct 10.0 03:41:06 10° NNE 03:41:06 10° NNE 03:41:10 10° NNE visible
10 Oct 10.4 04:51:33 11° NNW 04:51:33 11° NNW 04:51:39 10° NNW visible
11 Oct 10.2 04:21:17 11° N 04:21:17 11° N 04:21:27 10° N visible
